Location: Unspecified
(0.0000°N, 0.0000°E)
Time: 22:19:52
(UTC+00:00)

N. Korean satellite - Pass Details

Date: 16 September 2017
Orbit: 460 x 514 km, 97.2° (Epoch: 24 November)

Event Time Altitude Azimuth Distance (km) Brightness Sun altitude
Rises 18:24:13 0° 167° (SSE) 2,599 10.1 -7.4°
Reaches altitude 10° 18:26:18 10° 165° (SSE) 1,720 9.2 -7.9°
Maximum altitude 18:30:00 76° 80° (E) 530 6.6 -8.8°
Drops below altitude 10° 18:33:44 10° 353° (N) 1,730 9.5 -9.8°
Sets 18:35:50 0° 352° (N) 2,616 10.4 -10.3°
